Regional Weather Roundup
Issued by NWS

Home | Current Version | Previous Version | Text Only | Print | Product List | Glossary Off
Versions: 1 2 3 4 5 6 7 8 9 10 11 12 13 14 15 16 17 18 19 20 21 22 23 24 25 26 27 28 29 30 31 32 33 34 35 36 37 38 39 40 41 42 43 44 45 46 47 48 49 50

000
ASUS43 KFSD 242310
RWRSD

WEATHER ROUNDUP FOR SOUTH DAKOTA
NATIONAL WEATHER SERVICE SIOUX FALLS SD
600 PM CDT FRI APR 24 2015

NOTE: "FAIR" INDICATES FEW OR NO CLOUDS BELOW 12,000 FEET WITH NO
SIGNIFICANT WEATHER AND/OR OBSTRUCTIONS TO VISIBILITY.


SDZ001>005-009-010-012>017-250000-
NORTHWEST AND NORTH CENTRAL SOUTH DAKOTA

CITY           SKY/WX    TMP DP  RH WIND       PRES   REMARKS
BUFFALO          N/A     69  32  25 E13       29.51F
FAITH            N/A     70  31  23 NE14      29.55S
MOBRIDGE       SUNNY     72  44  36 NE12      29.53S
$$

SDZ012>016-024>037-041>051-057-063-072>074-250000-
SOUTHWEST AND SOUTH CENTRAL SOUTH DAKOTA

CITY           SKY/WX    TMP DP  RH WIND       PRES   REMARKS
RAPID CTY ARPT CLOUDY    62  48  60 W9        29.56S
PIERRE         SUNNY     74  44  34 N15       29.47F
CUSTER         CLOUDY    50  43  77 NW3       29.65S
ELLSWORTH AFB  CLOUDY    65  42  43 W7        29.56F
PHILIP         MOSUNNY   73  42  32 NE20G25   29.49S
PINE RIDGE     PTSUNNY   56  45  66 NW18G26   29.56R
SPEARFISH      FAIR      63  37  39 SE8       29.60F
WINNER         FAIR      80  38  22 NE6       29.45F
$$

SDZ004>011-016>023-039-040-250000-
NORTHEAST SOUTH DAKOTA

CITY           SKY/WX    TMP DP  RH WIND       PRES   REMARKS
ABERDEEN       CLOUDY    58  50  75 NE15      29.57R
WATERTOWN      PTSUNNY   62  45  53 E12G24    29.58R
BROOKINGS      CLOUDY    64  48  55 E21       29.58S
SISSETON         N/A     56  44  64 SE20      29.64R
$$

SDZ017-020-022-023-036>040-048>070-250000-
SOUTHEAST SOUTH DAKOTA

CITY           SKY/WX    TMP DP  RH WIND       PRES   REMARKS
SIOUX FALLS    PTSUNNY   73  51  46 SE12      29.52S
HURON          MOSUNNY   76  47  35 SE3       29.47F
CHAMBERLAIN    PTSUNNY   77  42  28 N5        29.44F
MITCHELL       TSTM      68  56  65 E10       29.45S
YANKTON        PTSUNNY   73  54  49 S20G26    29.48S
$$

ABBREVIATIONS USED IN REMARKS
   TC - TEMPERATURE IN CELSIUS
  WCI - WIND CHILL INDEX
   HX - HEAT INDEX
  VSB - VISIBILITY




USA.gov is the U.S. government's official web portal to all federal, state and local government web resources and services.